When you browse on this site, cookies collect data to enhance your experience and personalize the content and advertising you see.
Visit our Privacy Policy to learn more. By continuing to use the site, you agree to this use of cookies and data.
  • In Hungary
  • List of Countries
  • For 7 days
  • Water Temperature
  • Weather Map
  • News
  • Weather Widgets
  • user-avatar
    Login

    Hourly Weather Wilhelmshaven

    Today, 7 April, Tuesday

    Time Temperature Precipitation Wind Pressure Humidity
    00:00 +8°C° 0.1 mm 4 mps 768 mmHg 89%
    01:00 +9°C° 0 mm 3 mps 768 mmHg 96%
    02:00 +9°C° 0 mm 3 mps 769 mmHg 95%
    03:00 +8°C° 0 mm 3 mps 769 mmHg 94%
    04:00 +7°C° 0 mm 3 mps 770 mmHg 93%
    05:00 +7°C° 0 mm 3 mps 771 mmHg 91%
    06:00 +8°C° 0 mm 2 mps 771 mmHg 90%
    07:00 +8°C° 0 mm 2 mps 772 mmHg 93%
    08:00 +9°C° 0 mm 2 mps 772 mmHg 86%
    09:00 +12°C° 0 mm 2 mps 773 mmHg 79%
    10:00 +13°C° 0 mm 2 mps 773 mmHg 72%
    11:00 +14°C° 0 mm 2 mps 773 mmHg 68%
    12:00 +15°C° 0 mm 2 mps 773 mmHg 63%
    13:00 +15°C° 0 mm 2 mps 774 mmHg 59%
    14:00 +15°C° 0 mm 2 mps 773 mmHg 59%
    15:00 +13°C° 0 mm 3 mps 773 mmHg 59%
    16:00 +13°C° 0 mm 3 mps 773 mmHg 60%
    17:00 +12°C° 0 mm 4 mps 773 mmHg 63%
    18:00 +10°C° 0 mm 4 mps 773 mmHg 67%
    19:00 +8°C° 0 mm 4 mps 773 mmHg 70%
    20:00 +8°C° 0 mm 4 mps 773 mmHg 70%
    21:00 +7°C° 0 mm 4 mps 773 mmHg 71%
    22:00 +8°C° 0 mm 3 mps 773 mmHg 71%
    23:00 +7°C° 0 mm 4 mps 773 mmHg 74%

    Tomorrow, 8 April, Wednesday

    Time Temperature Precipitation Wind Pressure Humidity
    00:00 +7°C° 0 mm 4 mps 773 mmHg 76%
    01:00 +7°C° 0 mm 4 mps 773 mmHg 79%
    02:00 +6°C° 0 mm 4 mps 772 mmHg 79%
    03:00 +6°C° 0 mm 4 mps 772 mmHg 79%
    04:00 +6°C° 0 mm 4 mps 771 mmHg 80%
    05:00 +6°C° 0 mm 4 mps 771 mmHg 80%
    06:00 +7°C° 0 mm 4 mps 770 mmHg 81%
    07:00 +7°C° 0 mm 4 mps 770 mmHg 82%
    08:00 +10°C° 0 mm 3 mps 770 mmHg 80%
    09:00 +11°C° 0 mm 3 mps 769 mmHg 78%
    10:00 +13°C° 0 mm 3 mps 769 mmHg 76%
    11:00 +16°C° 0 mm 2 mps 769 mmHg 73%
    12:00 +18°C° 0 mm 1 mps 768 mmHg 70%
    13:00 +19°C° 0 mm 1 mps 768 mmHg 67%
    14:00 +19°C° 0 mm 1 mps 768 mmHg 67%
    15:00 +19°C° 0 mm 1 mps 767 mmHg 68%
    16:00 +19°C° 0 mm 2 mps 767 mmHg 68%
    17:00 +17°C° 0.6 mm 2 mps 767 mmHg 75%
    18:00 +15°C° 0.6 mm 2 mps 767 mmHg 81%
    19:00 +12°C° 0.6 mm 3 mps 766 mmHg 88%
    20:00 +11°C° 0.2 mm 3 mps 767 mmHg 88%
    21:00 +12°C° 0.2 mm 2 mps 767 mmHg 88%
    22:00 +10°C° 0.2 mm 2 mps 767 mmHg 87%
    23:00 +10°C° 0 mm 2 mps 767 mmHg 88%

    Day after tomorrow, 9 April, Thursday

    Time Temperature Precipitation Wind Pressure Humidity
    00:00 +9°C° 0 mm 2 mps 767 mmHg 88%
    01:00 +8°C° 0 mm 2 mps 767 mmHg 88%
    02:00 +8°C° 0 mm 2 mps 767 mmHg 88%
    03:00 +8°C° 0 mm 2 mps 767 mmHg 87%
    04:00 +8°C° 0 mm 2 mps 767 mmHg 86%
    05:00 +8°C° 0 mm 2 mps 767 mmHg 85%
    06:00 +9°C° 0 mm 2 mps 767 mmHg 84%
    07:00 +9°C° 0 mm 2 mps 768 mmHg 82%
    08:00 +10°C° 0 mm 2 mps 768 mmHg 80%
    09:00 +10°C° 0 mm 2 mps 768 mmHg 78%
    10:00 +12°C° 0 mm 2 mps 769 mmHg 76%
    11:00 +12°C° 0 mm 3 mps 769 mmHg 75%
    12:00 +12°C° 0 mm 3 mps 769 mmHg 74%
    13:00 +13°C° 0 mm 4 mps 769 mmHg 73%
    14:00 +12°C° 0 mm 4 mps 769 mmHg 72%
    15:00 +10°C° 0 mm 5 mps 769 mmHg 72%
    16:00 +9°C° 0 mm 5 mps 769 mmHg 72%
    17:00 +8°C° 0 mm 4 mps 770 mmHg 72%
    18:00 +7°C° 0 mm 4 mps 770 mmHg 73%
    19:00 +6°C° 0 mm 4 mps 770 mmHg 73%
    20:00 +5°C° 0 mm 4 mps 770 mmHg 75%
    21:00 +5°C° 0 mm 3 mps 771 mmHg 76%
    22:00 +4°C° 0 mm 3 mps 771 mmHg 78%
    23:00 +4°C° 0 mm 3 mps 771 mmHg 80%

    10 April, Friday

    Time Temperature Precipitation Wind Pressure Humidity
    00:00 +4°C° 0 mm 3 mps 771 mmHg 82%
    01:00 +4°C° 0 mm 2 mps 771 mmHg 84%
    02:00 +4°C° 0 mm 2 mps 771 mmHg 85%
    03:00 +4°C° 0 mm 2 mps 771 mmHg 86%
    04:00 +4°C° 0 mm 2 mps 771 mmHg 87%
    05:00 +5°C° 0 mm 1 mps 771 mmHg 85%
    06:00 +5°C° 0 mm 1 mps 771 mmHg 84%
    07:00 +6°C° 0 mm 1 mps 771 mmHg 82%
    08:00 +7°C° 0 mm 1 mps 771 mmHg 75%
    09:00 +8°C° 0 mm 1 mps 771 mmHg 69%
    10:00 +9°C° 0 mm 1 mps 771 mmHg 62%
    11:00 +10°C° 0 mm 1 mps 771 mmHg 59%
    12:00 +11°C° 0 mm 1 mps 771 mmHg 57%
    13:00 +10°C° 0 mm 2 mps 770 mmHg 54%
    14:00 +10°C° 0 mm 2 mps 770 mmHg 55%
    15:00 +10°C° 0 mm 2 mps 770 mmHg 55%
    16:00 +10°C° 0 mm 2 mps 769 mmHg 56%
    17:00 +9°C° 0 mm 2 mps 769 mmHg 61%
    18:00 +8°C° 0 mm 2 mps 769 mmHg 65%
    19:00 +6°C° 0 mm 2 mps 769 mmHg 69%
    20:00 +6°C° 0 mm 2 mps 769 mmHg 69%
    21:00 +6°C° 0 mm 2 mps 769 mmHg 68%
    22:00 +5°C° 0 mm 2 mps 769 mmHg 67%
    23:00 +5°C° 0 mm 2 mps 768 mmHg 69%

    11 April, Saturday

    Time Temperature Precipitation Wind Pressure Humidity
    00:00 +5°C° 0 mm 2 mps 768 mmHg 70%
    01:00 +4°C° 0 mm 2 mps 768 mmHg 71%
    02:00 +3°C° 0 mm 3 mps 768 mmHg 73%
    03:00 +4°C° 0 mm 3 mps 767 mmHg 75%
    04:00 +4°C° 0 mm 3 mps 767 mmHg 76%
    05:00 +4°C° 0 mm 3 mps 767 mmHg 75%
    06:00 +5°C° 0 mm 3 mps 766 mmHg 74%
    07:00 +5°C° 0 mm 4 mps 766 mmHg 73%
    08:00 +6°C° 0 mm 4 mps 766 mmHg 71%
    09:00 +8°C° 0 mm 4 mps 766 mmHg 69%
    10:00 +10°C° 0 mm 4 mps 766 mmHg 67%
    11:00 +11°C° 0.2 mm 4 mps 765 mmHg 70%
    12:00 +11°C° 0.2 mm 4 mps 765 mmHg 72%
    13:00 +12°C° 0.2 mm 4 mps 765 mmHg 75%
    14:00 +13°C° 0 mm 4 mps 764 mmHg 75%
    15:00 +14°C° 0 mm 4 mps 764 mmHg 75%
    16:00 +15°C° 0 mm 4 mps 763 mmHg 75%
    17:00 +14°C° 0.1 mm 4 mps 763 mmHg 81%
    18:00 +12°C° 0.1 mm 3 mps 763 mmHg 86%
    19:00 +11°C° 0.1 mm 3 mps 763 mmHg 92%
    20:00 +10°C° 0 mm 3 mps 763 mmHg 93%
    21:00 +9°C° 0 mm 3 mps 763 mmHg 94%
    22:00 +8°C° 0 mm 3 mps 763 mmHg 95%
    23:00 +8°C° 0 mm 3 mps 763 mmHg 95%

    12 April, Sunday

    Time Temperature Precipitation Wind Pressure Humidity
    00:00 +8°C° 0 mm 3 mps 763 mmHg 96%
    01:00 +8°C° 0 mm 3 mps 763 mmHg 97%
    02:00 +7°C° 0 mm 3 mps 763 mmHg 96%
    03:00 +7°C° 0 mm 3 mps 763 mmHg 95%
    04:00 +5°C° 0 mm 3 mps 762 mmHg 94%
    05:00 +5°C° 0 mm 3 mps 762 mmHg 94%
    06:00 +7°C° 0 mm 3 mps 762 mmHg 93%
    07:00 +7°C° 0 mm 3 mps 762 mmHg 92%
    08:00 +8°C° 0 mm 3 mps 762 mmHg 88%
    09:00 +9°C° 0 mm 3 mps 762 mmHg 83%
    10:00 +11°C° 0 mm 4 mps 762 mmHg 78%
    11:00 +11°C° 0 mm 4 mps 762 mmHg 76%
    12:00 +11°C° 0 mm 4 mps 762 mmHg 74%
    13:00 +11°C° 0 mm 4 mps 762 mmHg 71%
    14:00 +11°C° 0 mm 4 mps 762 mmHg 72%
    15:00 +10°C° 0 mm 4 mps 762 mmHg 72%
    16:00 +9°C° 0 mm 5 mps 761 mmHg 72%
    17:00 +8°C° 0 mm 4 mps 762 mmHg 77%
    18:00 +7°C° 0 mm 4 mps 762 mmHg 81%
    19:00 +7°C° 0 mm 3 mps 762 mmHg 85%
    20:00 +5°C° 0 mm 3 mps 762 mmHg 87%
    21:00 +5°C° 0 mm 4 mps 763 mmHg 90%
    22:00 +4°C° 0 mm 4 mps 763 mmHg 92%
    23:00 +4°C° 0 mm 4 mps 763 mmHg 91%
    Show more